SCP
0 0 0 0 0 0 0 0 0 0 0 0 0 0 0 0 0 0 0 0 0 0 0 0 0 0 0 0 0 0 0 0 0 0 0 0 0 0 0 0 0 0 0 0
0 0 0 0 0 0 0 0 0 0 0 0 0 0 0 0 0 0 0 0 0 0 0 0 0 0 0 0 0 0 0 0 0 0 0 0 0 0 0 0 0 0 0 0
0 0 0 0 0 0 0 0 0 0 0 0 0 0 0 0 0 0 0 0 0 0 0 0 0 0 0 0 0 0 0 0 0 0 0 0 0 0 0 0 0 0 0 0
0 0 0 0 0 0 0 0 0 0 0 0 0 0 0 0 0 0 0 0 0 0 0 0 0 0 0 0 0 0 0 0 0 0 0 0 0 0 0 0 0 0 0 0
0 0 0 0 0 0 0 0 0 0 0 0 0 0 0 0 0 0 0 0 0 0 0 0 0 0 0 0 0 0 0 0 0 0 0 0 0 0 0 0 0 0 0 0
0 0 0 0 0 0 0 0 0 0 0 0 0 0 0 0 0 0 0 0 0 0 0 0 1 1 0 0 0 0 0 0 0 0 0 0 0 0 0 0 0 0 0 0
0 0 0 0 0 0 0 0 0 0 0 0 0 0 0 0 0 0 0 0 0 0 0 0 0 0 0 0 0 0 0 0 0 0 0 0 0 0 0 0 0 0 0 0
0 0 0 0 0 0 0 0 0 0 0 0 0 0 0 0 0 0 0 0 0 0 0 1 0 0 0 0 0 0 0 0 0 0 0 0 0 0 0 0 0 0 0 0
0 0 0 0 0 0 0 0 0 0 0 0 0 0 0 0 0 0 0 0 0 0 0 0 0 0 0 0 0 0 0 0 0 0 0 0 0 0 0 0 0 0 0 0
0 0 0 0 0 0 0 0 0 -0 0 0 0 0 0 0 0 0 0 0 0 0 0 0 0 0 0 0 0 0 0 0 0 0 0 0 0 0 0 0 0 0 0 0
0 0 0 0 0 0 0 0 0 0 0 0 0 0 0 0 0 0 0 0 0 0 0 0 0 0 0 0 0 0 0 0 0 0 0 0 0 0 0 0 0 0 0 0
0 0 0 0 0 0 0 0 0 0 0 0 0 0 0 0 0 0 0 0 0 0 0 0 0 0 0 0 0 0 0 0 0 0 0 0 -0 0 0 0 0 0 0 0
0 -0 0 0 -0 0 0 -0 0 0 0 0 0 0 0 0 0 0 0 0 0 0 0 0 0 0 0 0 0 0 0 0 0 0 -0 -0 0 0 0 0 0 0 0 0
-0 -0 -0 -0 0 0 0 0 0 0 0 0 0 0 0 0 0 0 0 0 0 0 0 0 0 0 0 0 0 0 -0 -0 -0 -0 -0 -0 -0 0 0 0 0 0 0 0
-0 0 0 0 0 0 0 0 -0 -0 -0 -0 0 0 0 0 0 0 0 0 0 0 0 0 0 0 0 0 0 0 0 0 -0 -0 -0 -0 -0 0 0 0 0 0 0 0
0 0 -0 0 0 -0 -0 0 -0 0 -0 -0 0 0 0 0 0 0 0 0 0 0 0 0 0 0 0 0 0 -0 0 0 -0 0 -0 -0 0 0 0 0 0 0 0 0
-0 0 0 -0 -0 0 0 0 0 0 0 0 0 0 0 0 0 0 0 0 0 0 0 0 0 0 0 0 0 0 -0 -0 -0 -0 -0 -0 0 0 0 0 0 0 0 0
-0 0 0 -0 -0 -0 -0 -0 0 0 0 0 0 0 0 0 0 0 0 0 -0 0 0 0 0 0 0 0 0 0 -0 0 -0 -0 0 0 0 0 0 0 0 0 0 0
-0 0 -0 -0 -0 -0 -0 -0 0 0 0 0 0 0 0 0 0 0 0 0 0 0 0 0 0 0 0 0 -0 -0 -0 0 -0 -0 0 0 0 0 0 0 0 0 0 0
-0 -0 0 0 0 0 0 0 0 0 0 0 0 0 0 0 0 0 0 0 -0 0 0 0 0 0 0 0 0 -0 -0 -0 0 -0 0 0 0 0 0 0 0 0 0 -0
0 0 0 0 0 0 -0 -0 -0 0 0 -0 0 0 0 0 0 -0 0 0 0 0 0 0 0 0 0 0 0 0 0 -0 -0 0 0 0 0 0 0 0 0 0 0 0
0 0 0 0 0 0 0 0 0 -0 0 -0 0 0 -0 -0 -0 -0 -0 0 0 0 0 0 0 0 0 0 0 0 0 -0 -0 0 0 0 0 0 0 0 0 0 0 0
-0 -0 0 -0 0 -0 0 -0 -0 0 0 0 0 0 -0 0 0 0 0 0 0 0 0 0 0 0 0 -0 0 -0 -0 -0 -0 0 0 0 0 0 0 0 0 0 0 0
0 0 0 0 0 0 -0 0 0 0 -0 -0 -0 -0 0 -0 -0 0 0 0 0 0 0 0 0 0 -0 0 0 0 0 0 0 0 -0 -0 0 -0 0 0 -0 0 0 0
-0 0 0 0 0 0 0 0 -0 -0 -0 -0 -0 -0 -0 0 0 0 0 0 0 -0 0 0 0 0 0 0 0 0 0 0 -0 -0 -0 -0 0 0 0 0 0 -0 -0 -0
-0 -0 -0 -0 -0 0 0 0 -0 -0 -0 -0 -0 -0 -0 0 0 0 0 0 0 0 0 0 0 -0 -0 0 0 0 0 0 -0 -0 -0 -0 0 0 0 0 -0 -0 -0 -0
-0 0 -0 0 0 0 0 0 0 0 -0 -0 -0 -0 0 0 0 0 0 0 0 0 0 -0 -0 -0 -0 0 0 0 -0 0 -0 0 0 0 0 0 0 0 0 0 -0 -0
Wind_Speed_500mb
47 52 53 49 47 30 31 37 45 47 52 45 40 23 14 27 25 26 30 26 29 30 28 27 34 38 40 41 42 41 40 39 38 37 38 40 43 45 47 48 50 51 55 64
54 51 50 53 50 46 43 52 44 45 49 49 58 54 30 23 25 26 28 31 36 40 43 41 40 42 45 45 43 40 41 41 37 37 39 41 43 45 47 49 51 54 63 71
41 45 51 50 59 61 60 55 45 49 50 42 46 43 49 47 43 43 43 37 45 41 36 39 44 49 47 44 42 41 41 39 37 38 40 42 44 46 48 50 59 70 73 72
35 41 46 31 43 51 51 53 52 50 51 50 60 70 68 61 54 50 49 50 48 52 49 51 47 50 41 42 42 39 38 36 36 38 40 41 44 47 50 53 61 66 65 66
34 37 40 47 48 41 38 42 35 38 47 57 62 56 57 50 56 52 45 54 56 56 52 42 48 34 36 39 37 35 32 32 33 35 39 42 44 47 51 57 58 64 65 72
34 36 44 47 55 68 50 43 43 44 44 45 52 30 25 33 24 27 29 33 35 40 57 58 39 32 37 36 32 30 26 28 30 32 36 42 49 50 55 62 65 62 68 69
27 30 35 46 41 27 41 34 29 41 48 44 40 43 60 52 47 47 44 48 49 48 49 44 37 33 30 30 28 23 22 23 26 30 38 46 47 51 55 54 58 62 70 67
29 20 18 32 43 45 32 27 36 45 44 47 44 35 34 22 35 42 50 52 52 55 47 30 30 26 27 26 20 16 16 19 24 33 37 37 41 45 47 50 55 58 61 64
33 17 35 50 49 44 11 26 32 30 39 47 52 38 37 35 33 44 53 47 59 30 24 26 21 24 25 20 13 12 15 24 30 30 29 32 39 42 45 44 50 56 58 66
33 40 45 62 61 55 31 25 35 35 32 53 44 42 39 36 33 46 47 51 30 28 33 25 26 22 18 12 10 11 19 20 21 25 28 32 36 36 41 44 51 60 69 81
42 48 50 54 56 41 52 36 40 33 42 46 47 44 44 33 36 45 49 31 30 37 33 30 24 18 10 6 7 9 14 17 19 21 28 33 34 39 41 43 53 71 69 68
33 50 39 44 50 42 47 39 47 46 43 46 41 44 46 40 44 43 44 34 39 35 33 26 21 14 6 4 7 8 11 14 18 24 27 31 38 41 39 52 60 54 41 51
58 69 59 59 54 54 56 55 52 51 50 51 48 50 48 47 44 41 42 38 37 32 28 24 18 10 3 2 5 8 11 15 19 22 27 32 40 43 56 64 62 52 44 41
66 65 67 62 60 54 54 53 53 53 50 47 46 43 37 44 44 39 35 37 35 31 26 20 14 7 1 2 5 8 10 21 21 22 25 33 38 45 48 64 71 67 49 44
43 44 49 49 50 51 52 50 52 51 52 50 44 45 40 45 41 36 33 34 32 29 24 18 13 7 4 5 3 8 16 16 22 21 23 31 35 40 50 58 59 60 60 56
31 28 22 30 35 40 47 54 55 53 38 32 39 45 51 47 39 43 49 32 31 25 20 17 15 10 8 8 9 9 18 31 27 21 22 28 36 45 50 52 54 55 56 61
21 22 23 28 34 42 42 51 48 39 33 33 53 48 41 53 57 45 38 28 26 24 21 18 17 13 13 9 11 13 12 15 29 19 22 34 38 42 45 48 52 53 53 51
23 27 33 45 27 17 14 4 14 26 29 20 35 48 68 66 51 42 33 29 27 25 20 18 20 21 14 13 18 12 12 12 19 17 22 33 38 43 49 51 54 56 54 54
29 43 24 28 20 13 13 14 15 17 35 50 53 52 52 47 42 41 34 31 28 25 22 21 25 21 17 22 19 12 12 15 17 14 21 32 37 42 49 57 61 62 60 60
2 12 7 15 15 8 9 20 34 41 54 64 53 50 46 38 36 35 31 30 22 24 21 18 16 10 12 14 18 12 14 15 19 15 17 29 37 45 49 51 58 65 64 66
14 18 24 40 36 34 49 53 55 60 59 45 41 40 38 35 35 31 30 30 23 27 21 18 13 7 7 8 15 13 17 19 22 18 14 22 33 40 45 50 53 61 69 74
35 37 50 49 55 56 51 47 48 41 32 38 42 39 36 35 34 33 28 30 32 27 19 14 11 17 18 20 16 17 20 22 23 20 16 24 35 38 44 49 54 58 61 65
38 39 38 40 43 45 42 43 34 30 35 38 37 36 34 34 35 34 39 35 28 22 21 17 23 22 20 22 15 18 22 25 26 27 22 27 34 38 43 48 56 56 66 66
38 38 45 52 52 49 49 40 32 32 32 29 28 29 37 44 41 36 35 29 26 24 22 22 21 21 23 18 18 20 23 26 28 30 31 34 34 37 39 39 44 51 51 67
43 44 38 39 40 37 34 33 33 30 29 29 31 36 38 36 39 37 34 33 27 21 22 24 24 21 20 20 22 23 23 26 29 29 32 34 34 36 39 42 47 51 52 54
40 37 27 30 30 23 21 17 20 19 19 26 31 32 38 36 32 34 31 27 23 21 17 17 19 21 21 22 23 24 25 25 26 28 30 33 35 37 38 41 45 50 52 54
26 19 21 21 18 17 15 14 14 14 16 19 32 40 36 28 33 35 29 25 24 25 26 23 22 24 23 24 25 25 25 26 27 27 28 29 33 35 36 37 39 44 52 59
Wind_Direction_500mb
270 275 281 283 257 239 269 267 238 244 252 247 255 227 60 27 291 222 224 220 228 238 243 237 229 232 238 239 240 239 240 243 249 256 265 274 280 284 284 282 282 281 279 276
272 268 264 268 268 272 257 244 251 255 260 274 288 295 291 271 259 266 276 279 265 237 233 240 251 254 240 240 243 242 241 246 253 260 267 274 279 282 283 283 281 278 275 280
276 272 265 257 253 254 256 260 259 253 255 265 267 274 275 276 269 264 262 256 269 263 247 250 255 259 249 239 238 235 239 247 255 264 272 278 282 281 283 284 282 287 291 289
264 271 263 260 256 254 263 263 266 272 272 274 276 278 280 282 283 282 278 276 274 266 268 263 264 265 239 233 230 232 237 248 258 268 274 278 282 282 284 286 287 291 289 285
255 258 264 261 260 258 254 259 257 264 269 273 277 283 276 269 262 265 272 274 271 267 270 269 270 248 229 221 222 228 240 253 266 273 279 284 284 284 284 288 290 289 286 285
245 247 251 249 255 261 269 260 257 263 274 275 279 271 266 256 303 282 282 277 289 283 267 268 263 238 213 219 221 230 246 259 267 281 284 285 285 293 290 293 294 290 287 288
251 250 253 258 269 281 231 248 260 270 265 271 254 258 271 282 281 274 279 277 280 282 272 258 247 215 213 222 226 236 246 268 280 285 282 291 296 295 297 296 292 291 292 296
263 265 263 246 262 259 282 296 287 297 289 287 280 289 277 286 277 283 271 268 272 270 255 243 213 201 211 218 229 248 269 282 280 283 294 297 297 299 297 296 297 299 300 299
260 262 301 295 289 303 261 296 280 289 289 294 272 274 279 285 297 286 278 275 285 240 228 181 189 203 209 216 236 265 278 279 294 302 303 300 299 300 303 304 301 302 300 299
255 255 256 263 270 270 282 275 262 257 270 273 289 281 288 287 290 283 277 281 234 210 185 178 195 200 200 215 253 279 291 302 306 306 302 307 301 304 303 306 305 306 304 301
262 252 255 260 268 268 279 277 274 264 262 256 270 262 260 277 277 276 284 272 213 189 181 188 194 192 189 222 283 291 307 310 313 311 309 311 309 303 308 311 306 306 307 307
257 264 266 252 261 262 265 266 260 275 271 270 269 269 272 274 274 273 281 261 210 183 167 183 190 184 175 257 296 317 319 317 317 317 316 312 310 316 315 308 319 323 312 310
256 257 254 252 256 259 268 266 269 269 266 268 267 267 267 267 271 265 273 243 191 166 174 178 181 171 177 330 327 330 334 331 319 320 313 319 325 324 322 327 335 338 335 322
236 239 250 252 255 257 255 255 254 255 260 264 265 272 265 261 272 272 251 208 161 163 163 169 163 147 138 46 7 334 344 338 336 321 325 327 323 331 326 335 340 342 345 346
251 253 255 257 257 256 256 257 260 260 262 258 254 251 255 261 267 253 193 162 152 155 156 148 124 105 90 67 26 353 357 352 344 338 335 328 333 332 339 342 347 348 349 360
269 267 276 282 280 275 260 249 250 255 251 259 268 257 256 248 250 161 150 152 154 149 136 123 119 103 83 62 49 8 5 2 4 350 342 342 343 349 350 352 357 359 1 3
277 273 290 285 280 281 274 267 273 247 241 250 268 264 231 181 152 140 134 147 140 130 130 124 110 84 57 21 60 39 12 3 0 4 1 357 3 6 7 7 9 10 10 13
249 262 276 277 288 304 301 209 242 252 259 221 167 144 138 136 135 137 138 131 127 119 119 119 111 92 54 71 76 46 25 16 7 13 8 21 25 24 23 23 23 21 18 22
247 282 279 276 294 283 276 297 258 229 168 165 143 128 125 129 139 138 136 131 126 120 116 113 104 87 60 81 80 47 26 24 16 17 32 32 31 32 32 33 33 32 29 29
247 317 354 321 285 246 141 148 134 130 130 137 127 126 130 134 129 124 128 125 125 126 123 128 91 75 79 61 65 47 36 50 26 25 16 33 33 34 34 33 37 39 38 38
62 43 70 92 103 118 119 121 124 122 124 127 130 131 131 126 127 135 132 128 130 133 123 109 91 87 72 100 63 51 46 40 34 25 22 20 25 27 35 36 41 44 45 45
87 87 89 99 107 119 123 124 128 130 123 137 134 121 125 130 140 134 144 142 133 131 109 89 87 105 116 84 69 61 53 44 36 28 49 40 43 43 48 48 46 45 45 44
75 93 100 104 112 120 127 122 102 110 122 129 132 139 153 148 142 144 140 136 131 123 106 103 99 108 87 76 80 69 63 55 51 40 60 52 50 49 45 37 29 31 33 35
83 93 103 107 112 111 105 96 99 105 114 118 119 126 132 133 130 132 130 126 121 117 111 105 99 99 72 88 87 80 71 63 62 60 60 61 50 41 39 36 38 36 34 40
82 84 87 96 96 93 97 98 100 96 98 102 111 119 129 132 129 128 127 123 112 110 107 93 91 81 80 88 85 82 85 81 75 71 64 60 53 51 47 42 41 41 37 37
62 71 74 63 75 77 79 92 89 96 106 116 124 126 132 128 126 127 124 118 116 108 103 94 87 86 93 96 96 92 84 76 76 75 70 67 63 57 55 51 46 47 46 44
58 63 63 65 66 70 77 87 90 93 110 125 129 131 127 125 130 127 124 117 105 98 95 90 87 93 94 92 91 88 89 91 89 79 73 69 66 63 57 53 54 50 49 49
Wind_Speed_850mb
47 52 53 49 47 30 31 37 45 47 52 45 40 23 14 27 25 26 30 26 29 30 28 27 34 38 40 41 42 41 40 39 38 37 38 40 43 45 47 48 50 51 55 64
54 51 50 53 50 46 43 52 44 45 49 49 58 54 30 23 25 26 28 31 36 40 43 41 40 42 45 45 43 40 41 41 37 37 39 41 43 45 47 49 51 54 63 71
41 45 51 50 59 61 60 55 45 49 50 42 46 43 49 47 43 43 43 37 45 41 36 39 44 49 47 44 42 41 41 39 37 38 40 42 44 46 48 50 59 70 73 72
35 41 46 31 43 51 51 53 52 50 51 50 60 70 68 61 54 50 49 50 48 52 49 51 47 50 41 42 42 39 38 36 36 38 40 41 44 47 50 53 61 66 65 66
34 37 40 47 48 41 38 42 35 38 47 57 62 56 57 50 56 52 45 54 56 56 52 42 48 34 36 39 37 35 32 32 33 35 39 42 44 47 51 57 58 64 65 72
34 36 44 47 55 68 50 43 43 44 44 45 52 30 25 33 24 27 29 33 35 40 57 58 39 32 37 36 32 30 26 28 30 32 36 42 49 50 55 62 65 62 68 69
27 30 35 46 41 27 41 34 29 41 48 44 40 43 60 52 47 47 44 48 49 48 49 44 37 33 30 30 28 23 22 23 26 30 38 46 47 51 55 54 58 62 70 67
29 20 18 32 43 45 32 27 36 45 44 47 44 35 34 22 35 42 50 52 52 55 47 30 30 26 27 26 20 16 16 19 24 33 37 37 41 45 47 50 55 58 61 64
33 17 35 50 49 44 11 26 32 30 39 47 52 38 37 35 33 44 53 47 59 30 24 26 21 24 25 20 13 12 15 24 30 30 29 32 39 42 45 44 50 56 58 66
33 40 45 62 61 55 31 25 35 35 32 53 44 42 39 36 33 46 47 51 30 28 33 25 26 22 18 12 10 11 19 20 21 25 28 32 36 36 41 44 51 60 69 81
42 48 50 54 56 41 52 36 40 33 42 46 47 44 44 33 36 45 49 31 30 37 33 30 24 18 10 6 7 9 14 17 19 21 28 33 34 39 41 43 53 71 69 68
33 50 39 44 50 42 47 39 47 46 43 46 41 44 46 40 44 43 44 34 39 35 33 26 21 14 6 4 7 8 11 14 18 24 27 31 38 41 39 52 60 54 41 51
58 69 59 59 54 54 56 55 52 51 50 51 48 50 48 47 44 41 42 38 37 32 28 24 18 10 3 2 5 8 11 15 19 22 27 32 40 43 56 64 62 52 44 41
66 65 67 62 60 54 54 53 53 53 50 47 46 43 37 44 44 39 35 37 35 31 26 20 14 7 1 2 5 8 10 21 21 22 25 33 38 45 48 64 71 67 49 44
43 44 49 49 50 51 52 50 52 51 52 50 44 45 40 45 41 36 33 34 32 29 24 18 13 7 4 5 3 8 16 16 22 21 23 31 35 40 50 58 59 60 60 56
31 28 22 30 35 40 47 54 55 53 38 32 39 45 51 47 39 43 49 32 31 25 20 17 15 10 8 8 9 9 18 31 27 21 22 28 36 45 50 52 54 55 56 61
21 22 23 28 34 42 42 51 48 39 33 33 53 48 41 53 57 45 38 28 26 24 21 18 17 13 13 9 11 13 12 15 29 19 22 34 38 42 45 48 52 53 53 51
23 27 33 45 27 17 14 4 14 26 29 20 35 48 68 66 51 42 33 29 27 25 20 18 20 21 14 13 18 12 12 12 19 17 22 33 38 43 49 51 54 56 54 54
29 43 24 28 20 13 13 14 15 17 35 50 53 52 52 47 42 41 34 31 28 25 22 21 25 21 17 22 19 12 12 15 17 14 21 32 37 42 49 57 61 62 60 60
2 12 7 15 15 8 9 20 34 41 54 64 53 50 46 38 36 35 31 30 22 24 21 18 16 10 12 14 18 12 14 15 19 15 17 29 37 45 49 51 58 65 64 66
14 18 24 40 36 34 49 53 55 60 59 45 41 40 38 35 35 31 30 30 23 27 21 18 13 7 7 8 15 13 17 19 22 18 14 22 33 40 45 50 53 61 69 74
35 37 50 49 55 56 51 47 48 41 32 38 42 39 36 35 34 33 28 30 32 27 19 14 11 17 18 20 16 17 20 22 23 20 16 24 35 38 44 49 54 58 61 65
38 39 38 40 43 45 42 43 34 30 35 38 37 36 34 34 35 34 39 35 28 22 21 17 23 22 20 22 15 18 22 25 26 27 22 27 34 38 43 48 56 56 66 66
38 38 45 52 52 49 49 40 32 32 32 29 28 29 37 44 41 36 35 29 26 24 22 22 21 21 23 18 18 20 23 26 28 30 31 34 34 37 39 39 44 51 51 67
43 44 38 39 40 37 34 33 33 30 29 29 31 36 38 36 39 37 34 33 27 21 22 24 24 21 20 20 22 23 23 26 29 29 32 34 34 36 39 42 47 51 52 54
40 37 27 30 30 23 21 17 20 19 19 26 31 32 38 36 32 34 31 27 23 21 17 17 19 21 21 22 23 24 25 25 26 28 30 33 35 37 38 41 45 50 52 54
26 19 21 21 18 17 15 14 14 14 16 19 32 40 36 28 33 35 29 25 24 25 26 23 22 24 23 24 25 25 25 26 27 27 28 29 33 35 36 37 39 44 52 59
Wind_Direction_850mb
270 275 281 283 257 239 269 267 238 244 252 247 255 227 60 27 291 222 224 220 228 238 243 237 229 232 238 239 240 239 240 243 249 256 265 274 280 284 284 282 282 281 279 276
272 268 264 268 268 272 257 244 251 255 260 274 288 295 291 271 259 266 276 279 265 237 233 240 251 254 240 240 243 242 241 246 253 260 267 274 279 282 283 283 281 278 275 280
276 272 265 257 253 254 256 260 259 253 255 265 267 274 275 276 269 264 262 256 269 263 247 250 255 259 249 239 238 235 239 247 255 264 272 278 282 281 283 284 282 287 291 289
264 271 263 260 256 254 263 263 266 272 272 274 276 278 280 282 283 282 278 276 274 266 268 263 264 265 239 233 230 232 237 248 258 268 274 278 282 282 284 286 287 291 289 285
255 258 264 261 260 258 254 259 257 264 269 273 277 283 276 269 262 265 272 274 271 267 270 269 270 248 229 221 222 228 240 253 266 273 279 284 284 284 284 288 290 289 286 285
245 247 251 249 255 261 269 260 257 263 274 275 279 271 266 256 303 282 282 277 289 283 267 268 263 238 213 219 221 230 246 259 267 281 284 285 285 293 290 293 294 290 287 288
251 250 253 258 269 281 231 248 260 270 265 271 254 258 271 282 281 274 279 277 280 282 272 258 247 215 213 222 226 236 246 268 280 285 282 291 296 295 297 296 292 291 292 296
263 265 263 246 262 259 282 296 287 297 289 287 280 289 277 286 277 283 271 268 272 270 255 243 213 201 211 218 229 248 269 282 280 283 294 297 297 299 297 296 297 299 300 299
260 262 301 295 289 303 261 296 280 289 289 294 272 274 279 285 297 286 278 275 285 240 228 181 189 203 209 216 236 265 278 279 294 302 303 300 299 300 303 304 301 302 300 299
255 255 256 263 270 270 282 275 262 257 270 273 289 281 288 287 290 283 277 281 234 210 185 178 195 200 200 215 253 279 291 302 306 306 302 307 301 304 303 306 305 306 304 301
262 252 255 260 268 268 279 277 274 264 262 256 270 262 260 277 277 276 284 272 213 189 181 188 194 192 189 222 283 291 307 310 313 311 309 311 309 303 308 311 306 306 307 307
257 264 266 252 261 262 265 266 260 275 271 270 269 269 272 274 274 273 281 261 210 183 167 183 190 184 175 257 296 317 319 317 317 317 316 312 310 316 315 308 319 323 312 310
256 257 254 252 256 259 268 266 269 269 266 268 267 267 267 267 271 265 273 243 191 166 174 178 181 171 177 330 327 330 334 331 319 320 313 319 325 324 322 327 335 338 335 322
236 239 250 252 255 257 255 255 254 255 260 264 265 272 265 261 272 272 251 208 161 163 163 169 163 147 138 46 7 334 344 338 336 321 325 327 323 331 326 335 340 342 345 346
251 253 255 257 257 256 256 257 260 260 262 258 254 251 255 261 267 253 193 162 152 155 156 148 124 105 90 67 26 353 357 352 344 338 335 328 333 332 339 342 347 348 349 360
269 267 276 282 280 275 260 249 250 255 251 259 268 257 256 248 250 161 150 152 154 149 136 123 119 103 83 62 49 8 5 2 4 350 342 342 343 349 350 352 357 359 1 3
277 273 290 285 280 281 274 267 273 247 241 250 268 264 231 181 152 140 134 147 140 130 130 124 110 84 57 21 60 39 12 3 0 4 1 357 3 6 7 7 9 10 10 13
249 262 276 277 288 304 301 209 242 252 259 221 167 144 138 136 135 137 138 131 127 119 119 119 111 92 54 71 76 46 25 16 7 13 8 21 25 24 23 23 23 21 18 22
247 282 279 276 294 283 276 297 258 229 168 165 143 128 125 129 139 138 136 131 126 120 116 113 104 87 60 81 80 47 26 24 16 17 32 32 31 32 32 33 33 32 29 29
247 317 354 321 285 246 141 148 134 130 130 137 127 126 130 134 129 124 128 125 125 126 123 128 91 75 79 61 65 47 36 50 26 25 16 33 33 34 34 33 37 39 38 38
62 43 70 92 103 118 119 121 124 122 124 127 130 131 131 126 127 135 132 128 130 133 123 109 91 87 72 100 63 51 46 40 34 25 22 20 25 27 35 36 41 44 45 45
87 87 89 99 107 119 123 124 128 130 123 137 134 121 125 130 140 134 144 142 133 131 109 89 87 105 116 84 69 61 53 44 36 28 49 40 43 43 48 48 46 45 45 44
75 93 100 104 112 120 127 122 102 110 122 129 132 139 153 148 142 144 140 136 131 123 106 103 99 108 87 76 80 69 63 55 51 40 60 52 50 49 45 37 29 31 33 35
83 93 103 107 112 111 105 96 99 105 114 118 119 126 132 133 130 132 130 126 121 117 111 105 99 99 72 88 87 80 71 63 62 60 60 61 50 41 39 36 38 36 34 40
82 84 87 96 96 93 97 98 100 96 98 102 111 119 129 132 129 128 127 123 112 110 107 93 91 81 80 88 85 82 85 81 75 71 64 60 53 51 47 42 41 41 37 37
62 71 74 63 75 77 79 92 89 96 106 116 124 126 132 128 126 127 124 118 116 108 103 94 87 86 93 96 96 92 84 76 76 75 70 67 63 57 55 51 46 47 46 44
58 63 63 65 66 70 77 87 90 93 110 125 129 131 127 125 130 127 124 117 105 98 95 90 87 93 94 92 91 88 89 91 89 79 73 69 66 63 57 53 54 50 49 49